Weather History for KBFM - August, 2014

Change the Weather History Date:

Sunday, August 10, 2014

  Actual Average Record
Temperature  
Mean Temperature 81 °F -  
Max Temperature 89 °F 87 °F 97 °F (2011)
Min Temperature 73 °F 72 °F 69 °F (2008)
Cooling Degree Days 16    
Growing Degree Days 31 (Base 50)    
Moisture  
Dew Point 74 °F    
Average Humidity 91    
Maximum Humidity 100    
Minimum Humidity 65    
Precipitation  
Precipitation 0.00 in - - ()
Sea Level Pressure  
Sea Level Pressure 30.02 in    
Wind  
Wind Speed 3 mph (WNW)    
Max Wind Speed 10 mph    
Max Gust Speed -    
Visibility 6 miles    
Events Fog    
Averages and records for this station are not official NWS values.
T = Trace of Precipitation, MM = Missing Value Source: NWS Daily Summary

Daily Weather History Graph

Daily Weather History Graph

Search for Another Location

Airport or City:

Trip Planner

Search our weather history database for the weather conditions in past years. The results will help you decide how hot, cold, wet, or windy it might be!

Date:

Astronomy

Aug. 10, 2014 Rise Set
Actual Time 6:15 AM CDT 7:39 PM CDT
Civil Twilight 5:50 AM CDT 8:04 PM CDT
Nautical Twilight 5:19 AM CDT 8:35 PM CDT
Astronomical Twilight 4:47 AM CDT 9:06 PM CDT
Moon 7:31 PM CDT (8/10) 6:04 AM CDT (8/10)
Length of Visible Light 14h 14m
Length of Day
13h 23m
Full, 100% of the Moon is Illuminated
Aug 10
Full
Aug 10
Full
Aug 17
Last Quarter
Aug 25
New
Sep 2
First Quarter

Hourly Weather History & Observations

Time (CDT) Temp. Heat Index Dew Point Humidity Pressure Visibility Wind Dir Wind Speed Gust Speed Precip Events Conditions
12:53 AM 75.0 °F - 73.9 °F 96% 30.01 in 10.0 mi Calm Calm - N/A   Clear
1:53 AM 73.9 °F - 73.0 °F 97% 30.01 in 10.0 mi WSW 3.5 mph - N/A   Clear
2:44 AM 73.9 °F - 73.0 °F 97% 30.00 in 10.0 mi Variable 3.5 mph - N/A   Scattered Clouds
2:53 AM 73.9 °F - 73.0 °F 97% 29.99 in 10.0 mi WSW 4.6 mph - N/A   Mostly Cloudy
3:23 AM 73.0 °F - 73.0 °F 100% 29.99 in 2.5 mi WSW 4.6 mph - N/A   Mostly Cloudy
3:32 AM 73.0 °F - 73.0 °F 100% 29.99 in 1.2 mi WSW 3.5 mph - N/A   Overcast
3:41 AM 73.0 °F - 73.0 °F 100% 29.99 in 1.0 mi West 3.5 mph - N/A   Mist
3:53 AM 73.0 °F - 73.0 °F 100% 29.99 in 2.0 mi Calm Calm - N/A   Overcast
4:01 AM 73.0 °F - 73.0 °F 100% 29.99 in 1.0 mi WSW 3.5 mph - N/A   Mist
4:08 AM 73.0 °F - 73.0 °F 100% 29.99 in 0.5 mi WSW 3.5 mph - N/A Fog Fog
4:27 AM 73.0 °F - 73.0 °F 100% 29.99 in 1.2 mi WNW 3.5 mph - N/A   Overcast
4:41 AM 73.0 °F - 73.0 °F 100% 29.99 in 0.5 mi NW 4.6 mph - N/A Fog Fog
4:53 AM 73.0 °F - 73.0 °F 100% 30.00 in 0.5 mi Calm Calm - N/A Fog Fog
5:03 AM 73.0 °F - 73.0 °F 100% 30.00 in 1.5 mi WNW 3.5 mph - N/A   Overcast
5:18 AM 73.0 °F - 73.0 °F 100% 30.01 in 0.5 mi NW 4.6 mph - N/A Fog Fog
5:33 AM 73.0 °F - 73.0 °F 100% 30.01 in 0.2 mi Calm Calm - N/A Fog Fog
5:53 AM 73.0 °F - 73.0 °F 100% 30.02 in 1.0 mi Calm Calm - N/A   Mist
6:22 AM 73.0 °F - 73.0 °F 100% 30.03 in 3.0 mi NW 6.9 mph - N/A   Mostly Cloudy
6:35 AM 73.0 °F - 73.0 °F 100% 30.04 in 7.0 mi NW 3.5 mph - N/A   Scattered Clouds
6:53 AM 73.0 °F - 73.0 °F 100% 30.04 in 7.0 mi Calm Calm - N/A   Clear
7:53 AM 75.0 °F - 73.9 °F 96% 30.07 in 10.0 mi North 3.5 mph - N/A   Partly Cloudy
8:04 AM 75.0 °F - 73.9 °F 96% 30.07 in 10.0 mi North 3.5 mph - N/A   Partly Cloudy
10:53 AM 81.0 °F 86.7 °F 75.0 °F 82% 30.09 in 10.0 mi NNE 4.6 mph - N/A   Partly Cloudy
11:53 AM 82.9 °F 89.4 °F 73.9 °F 74% 30.08 in 10.0 mi NW 4.6 mph - N/A   Partly Cloudy
12:53 PM 82.9 °F 90.2 °F 75.0 °F 77% 30.06 in 10.0 mi WNW 3.5 mph - N/A   Partly Cloudy
1:53 PM 86.0 °F 95.1 °F 75.0 °F 70% 30.05 in 10.0 mi ENE 5.8 mph - N/A   Partly Cloudy
3:53 PM 88.0 °F 98.5 °F 75.9 °F 67% 30.01 in 10.0 mi SE 6.9 mph - N/A   Partly Cloudy
4:53 PM 89.1 °F 100.2 °F 75.9 °F 65% 29.99 in 10.0 mi SSE 10.4 mph - N/A   Scattered Clouds
5:53 PM 88.0 °F 98.5 °F 75.9 °F 67% 29.97 in 10.0 mi South 5.8 mph - N/A   Partly Cloudy
7:53 PM 82.9 °F 91.8 °F 77.0 °F 82% 29.99 in 10.0 mi SW 3.5 mph - N/A   Clear
8:53 PM 82.0 °F 89.4 °F 75.9 °F 82% 30.01 in 10.0 mi West 3.5 mph - N/A   Clear
9:53 PM 81.0 °F 87.3 °F 75.9 °F 85% 30.04 in 10.0 mi WNW 4.6 mph - N/A   Partly Cloudy
11:53 PM 78.1 °F - 73.0 °F 84% 30.02 in 10.0 mi Calm Calm - N/A   Clear